• In Switzerland
  • List of Countries
  • For 7 days
  • Water Temperature
  • Satellite Maps
  • Weather Map
  • Weather Widgets
  • user-avatar
    Login

    Hourly Weather Serhijeva Balka

    Today, 25 April, Wednesday

    Time Temperature Precipitation Wind Pressure Humidity
    00:00 +12°C° 0 mm 3 mps 744 mmHg 89%
    01:00 +11°C° 0 mm 3 mps 744 mmHg 90%
    02:00 +11°C° 0 mm 3 mps 744 mmHg 92%
    03:00 +10°C° 0 mm 3 mps 744 mmHg 93%
    04:00 +10°C° 0 mm 2 mps 744 mmHg 95%
    05:00 +9°C° 0 mm 2 mps 744 mmHg 96%
    06:00 +12°C° 0 mm 2 mps 745 mmHg 89%
    07:00 +14°C° 0 mm 2 mps 745 mmHg 83%
    08:00 +14°C° 0 mm 3 mps 745 mmHg 76%
    09:00 +17°C° 0 mm 3 mps 745 mmHg 70%
    10:00 +18°C° 0 mm 4 mps 745 mmHg 64%
    11:00 +20°C° 0 mm 4 mps 746 mmHg 58%
    12:00 +20°C° 0 mm 5 mps 746 mmHg 55%
    13:00 +21°C° 0 mm 5 mps 745 mmHg 52%
    14:00 +21°C° 0 mm 5 mps 745 mmHg 50%
    15:00 +21°C° 0 mm 5 mps 745 mmHg 50%
    16:00 +21°C° 0 mm 4 mps 745 mmHg 51%
    17:00 +20°C° 0 mm 4 mps 745 mmHg 51%
    18:00 +19°C° 0 mm 3 mps 745 mmHg 55%
    19:00 +17°C° 0 mm 3 mps 745 mmHg 58%
    20:00 +16°C° 0 mm 2 mps 745 mmHg 62%
    21:00 +15°C° 0 mm 2 mps 745 mmHg 62%
    22:00 +14°C° 0 mm 3 mps 745 mmHg 62%
    23:00 +14°C° 0 mm 3 mps 745 mmHg 61%

    Tomorrow, 26 April, Thursday

    Time Temperature Precipitation Wind Pressure Humidity
    00:00 +14°C° 0 mm 4 mps 745 mmHg 62%
    01:00 +14°C° 0 mm 4 mps 745 mmHg 62%
    02:00 +14°C° 0 mm 4 mps 745 mmHg 62%
    03:00 +13°C° 0 mm 5 mps 745 mmHg 64%
    04:00 +13°C° 0 mm 5 mps 745 mmHg 65%
    05:00 +13°C° 0 mm 5 mps 745 mmHg 66%
    06:00 +15°C° 0 mm 6 mps 745 mmHg 63%
    07:00 +17°C° 0 mm 6 mps 745 mmHg 59%
    08:00 +20°C° 0 mm 7 mps 745 mmHg 55%
    09:00 +21°C° 0 mm 7 mps 745 mmHg 52%
    10:00 +23°C° 0 mm 8 mps 745 mmHg 50%
    11:00 +24°C° 0 mm 8 mps 745 mmHg 47%
    12:00 +26°C° 0 mm 8 mps 745 mmHg 46%
    13:00 +26°C° 0 mm 8 mps 745 mmHg 45%
    14:00 +27°C° 0 mm 8 mps 744 mmHg 45%
    15:00 +26°C° 0 mm 7 mps 744 mmHg 49%
    16:00 +25°C° 0 mm 5 mps 744 mmHg 53%
    17:00 +25°C° 0 mm 4 mps 744 mmHg 57%
    18:00 +22°C° 0.2 mm 3 mps 745 mmHg 62%
    19:00 +21°C° 0.2 mm 3 mps 745 mmHg 68%
    20:00 +19°C° 0.2 mm 2 mps 746 mmHg 73%
    21:00 +18°C° 0.1 mm 2 mps 746 mmHg 75%
    22:00 +17°C° 0.1 mm 2 mps 746 mmHg 78%
    23:00 +17°C° 0.1 mm 2 mps 746 mmHg 80%

    Day after tomorrow, 27 April, Friday

    Time Temperature Precipitation Wind Pressure Humidity
    00:00 +16°C° 0 mm 2 mps 746 mmHg 81%
    01:00 +16°C° 0 mm 2 mps 746 mmHg 82%
    02:00 +14°C° 0 mm 3 mps 745 mmHg 84%
    03:00 +14°C° 0 mm 3 mps 745 mmHg 84%
    04:00 +14°C° 0 mm 3 mps 745 mmHg 85%
    05:00 +13°C° 0 mm 3 mps 745 mmHg 85%
    06:00 +16°C° 0 mm 3 mps 745 mmHg 78%
    07:00 +18°C° 0 mm 3 mps 745 mmHg 71%
    08:00 +20°C° 0 mm 4 mps 745 mmHg 64%
    09:00 +21°C° 0 mm 4 mps 745 mmHg 58%
    10:00 +22°C° 0 mm 5 mps 745 mmHg 53%
    11:00 +25°C° 0 mm 5 mps 745 mmHg 48%
    12:00 +24°C° 0.1 mm 6 mps 744 mmHg 46%
    13:00 +26°C° 0.1 mm 6 mps 744 mmHg 44%
    14:00 +26°C° 0.1 mm 7 mps 744 mmHg 43%
    15:00 +23°C° 0.5 mm 7 mps 744 mmHg 52%
    16:00 +21°C° 0.5 mm 6 mps 744 mmHg 60%
    17:00 +19°C° 0.5 mm 6 mps 744 mmHg 69%
    18:00 +16°C° 0.4 mm 6 mps 745 mmHg 74%
    19:00 +14°C° 0.4 mm 6 mps 745 mmHg 80%
    20:00 +12°C° 0.4 mm 5 mps 746 mmHg 86%
    21:00 +10°C° 0 mm 5 mps 746 mmHg 86%
    22:00 +10°C° 0 mm 4 mps 747 mmHg 87%
    23:00 +8°C° 0 mm 4 mps 747 mmHg 88%

    28 April, Saturday

    Time Temperature Precipitation Wind Pressure Humidity
    00:00 +9°C° 0 mm 3 mps 748 mmHg 89%
    01:00 +9°C° 0 mm 3 mps 748 mmHg 90%
    02:00 +8°C° 0 mm 3 mps 748 mmHg 91%
    03:00 +8°C° 0 mm 2 mps 749 mmHg 92%
    04:00 +8°C° 0 mm 2 mps 749 mmHg 92%
    05:00 +8°C° 0 mm 2 mps 750 mmHg 93%
    06:00 +10°C° 0 mm 2 mps 750 mmHg 85%
    07:00 +12°C° 0 mm 2 mps 751 mmHg 78%
    08:00 +13°C° 0 mm 3 mps 751 mmHg 70%
    09:00 +14°C° 0 mm 3 mps 751 mmHg 63%
    10:00 +17°C° 0 mm 3 mps 752 mmHg 56%
    11:00 +18°C° 0 mm 3 mps 752 mmHg 49%
    12:00 +19°C° 0 mm 3 mps 752 mmHg 46%
    13:00 +19°C° 0 mm 4 mps 752 mmHg 43%
    14:00 +20°C° 0 mm 4 mps 752 mmHg 40%
    15:00 +20°C° 0 mm 4 mps 752 mmHg 41%
    16:00 +19°C° 0 mm 3 mps 752 mmHg 43%
    17:00 +19°C° 0 mm 3 mps 752 mmHg 44%
    18:00 +17°C° 0 mm 3 mps 752 mmHg 49%
    19:00 +16°C° 0 mm 2 mps 753 mmHg 54%
    20:00 +14°C° 0 mm 2 mps 753 mmHg 59%
    21:00 +13°C° 0 mm 2 mps 753 mmHg 61%
    22:00 +13°C° 0 mm 2 mps 754 mmHg 62%
    23:00 +12°C° 0 mm 1 mps 754 mmHg 64%

    29 April, Sunday

    Time Temperature Precipitation Wind Pressure Humidity
    00:00 +12°C° 0 mm 1 mps 754 mmHg 65%
    01:00 +12°C° 0 mm 1 mps 754 mmHg 67%
    02:00 +11°C° 0 mm 1 mps 754 mmHg 68%
    03:00 +10°C° 0 mm 2 mps 754 mmHg 69%
    04:00 +10°C° 0 mm 2 mps 755 mmHg 71%
    05:00 +10°C° 0 mm 2 mps 755 mmHg 72%
    06:00 +13°C° 0 mm 2 mps 755 mmHg 66%
    07:00 +15°C° 0 mm 2 mps 755 mmHg 60%
    08:00 +17°C° 0 mm 3 mps 755 mmHg 53%
    09:00 +18°C° 0 mm 3 mps 755 mmHg 49%
    10:00 +19°C° 0 mm 2 mps 755 mmHg 44%
    11:00 +20°C° 0 mm 2 mps 755 mmHg 40%
    12:00 +21°C° 0 mm 2 mps 754 mmHg 38%
    13:00 +23°C° 0 mm 2 mps 754 mmHg 37%
    14:00 +23°C° 0 mm 1 mps 754 mmHg 35%
    15:00 +23°C° 0 mm 1 mps 753 mmHg 36%
    16:00 +23°C° 0 mm 1 mps 753 mmHg 37%
    17:00 +23°C° 0 mm 1 mps 753 mmHg 38%
    18:00 +22°C° 0 mm 1 mps 753 mmHg 42%
    19:00 +20°C° 0 mm 1 mps 752 mmHg 46%
    20:00 +18°C° 0 mm 1 mps 752 mmHg 50%
    21:00 +16°C° 0 mm 1 mps 752 mmHg 53%
    22:00 +16°C° 0 mm 2 mps 752 mmHg 55%
    23:00 +15°C° 0 mm 2 mps 752 mmHg 57%

    30 April, Monday

    Time Temperature Precipitation Wind Pressure Humidity
    00:00 +14°C° 0 mm 2 mps 752 mmHg 60%
    01:00 +14°C° 0 mm 1 mps 752 mmHg 62%
    02:00 +13°C° 0 mm 1 mps 752 mmHg 65%
    03:00 +13°C° 0 mm 1 mps 752 mmHg 66%
    04:00 +13°C° 0 mm 1 mps 752 mmHg 67%
    05:00 +13°C° 0 mm 1 mps 752 mmHg 69%
    06:00 +15°C° 0 mm 1 mps 752 mmHg 62%
    07:00 +18°C° 0 mm 1 mps 752 mmHg 56%
    08:00 +19°C° 0 mm 2 mps 752 mmHg 49%
    09:00 +21°C° 0 mm 2 mps 752 mmHg 45%
    10:00 +23°C° 0 mm 2 mps 752 mmHg 41%
    11:00 +24°C° 0 mm 2 mps 752 mmHg 37%
    12:00 +25°C° 0 mm 2 mps 752 mmHg 36%
    13:00 +26°C° 0 mm 2 mps 751 mmHg 34%
    14:00 +26°C° 0 mm 2 mps 751 mmHg 33%
    15:00 +26°C° 0 mm 2 mps 751 mmHg 35%
    16:00 +26°C° 0 mm 2 mps 751 mmHg 38%
    17:00 +26°C° 0 mm 2 mps 750 mmHg 41%
    18:00 +24°C° 0 mm 2 mps 751 mmHg 44%
    19:00 +21°C° 0 mm 2 mps 751 mmHg 48%
    20:00 +19°C° 0 mm 2 mps 751 mmHg 51%
    21:00 +18°C° 0 mm 2 mps 751 mmHg 53%
    22:00 +17°C° 0 mm 2 mps 751 mmHg 55%
    23:00 +16°C° 0 mm 2 mps 751 mmHg 57%
    Show more